Weather Service Report


957 
ASUS41 KAKQ 191210
RWRAKQ

REGIONAL WEATHER ROUNDUP
NATIONAL WEATHER SERVICE WAKEFIELD VA
800 AM EDT FRI SEP 19 2014

Note: "fair" indicates few or no clouds below 12,000 feet with no
significant weather and/or obstructions to visibility. * = Denotes
station may not report precipitation (e.g., rain,snow,etc.),
thunder or fog.

VAZ042-051-052>054-056-191300-
NORTHERN VIRGINIA
  
CITY           SKY/WX    TMP DP  RH WIND       PRES   REMARKS
WASH NATIONAL  MOSUNNY   61  51  70 NE12      30.24R                  
DULLES         PTSUNNY   55  49  80 N7        30.24R                  
FORT BELVOIR   MOSUNNY   60  54  80 VRB2      30.24R                  
QUANTICO       MOSUNNY   64  56  75 NE12      30.23R                  
FREDERICKSBRG* PTSUNNY   62  62 100 N3        30.21R FOG              
STAFFORD*      PTSUNNY   57  57 100 CALM      30.26R FOG              
WARRENTON      MOSUNNY   58  56  92 NE6       30.22R                  
CULPEPER*      PTSUNNY   57  55  94 CALM      30.24R                  
MANASSAS*      NOT AVBL                                               
LEESBURG*      MOSUNNY   55  54  94 NE8       30.26R                  
WINCHESTER     CLOUDY    54  50  87 N3        30.25R                  
FRONT ROYAL*   CLOUDY    54  50  87 NE5       30.24R                  
LURAY*         CLOUDY    59  52  77 NE7       30.23R                  
$$

VAZ048-049-060>072-079>083-191300-
CENTRAL AND SOUTH CENTRAL VIRGINIA...AND NORTH CENTRAL NORTH CAROLINA
  
CITY           SKY/WX    TMP DP  RH WIND       PRES   REMARKS
RICHMOND       CLOUDY    64  59  83 CALM      30.20R                  
CHESTERFIELD*  CLOUDY    63  54  72 NW6       30.21R                  
PETERSBURG*    CLOUDY    63  60  87 CALM      30.20R                  
HANOVER        CLOUDY    62  60  93 CALM      30.22R FOG              
TAPPAHANNOCK*  MOSUNNY   59  57  94 CALM      30.21R FOG              
CHARLOTTSVILLE CLOUDY    61  56  83 NE7       30.21R                  
ORANGE*        PTSUNNY   59  55  88 N3        30.23R                  
LOUISA*        FOG       61  59  94 CALM      30.21R VSB<1/4          
FARMVILLE*     CLOUDY    63  61  94 CALM      30.18R                  
CREWE*         CLOUDY    61  56  83 CALM      30.19S                  
FORT PICKETT*  CLOUDY    62  59  91 NE6       30.20R                  
LUNENBURG*     CLOUDY    63  61  94 CALM      30.19R                  
SOUTH HILL*    CLOUDY    63  63 100 N3        30.24R                  
LAWRENCEVILLE* CLOUDY    63  60  91 CALM      30.19R                  
ROANOKE RAPIDS CLOUDY    61  59  94 CALM      30.17R                  
RALEIGH        CLOUDY    65  58  78 NE3       30.16R                  
$$

VAZ088>098-191300-
SOUTHEAST VIRGINIA
  
CITY           SKY/WX    TMP DP  RH WIND       PRES   REMARKS
NORFOLK        CLOUDY    69  61  75 CALM      30.17R                  
VIRGINIA BEACH PTSUNNY   66  62  87 CALM      30.17R                  
NORFOLK NAVAL  PTSUNNY   70  62  76 CALM      30.19R                  
WEST POINT*    CLOUDY    65  62  90 CALM      30.21R                  
NEWPORT NEWS   CLOUDY    69  61  75 N3        30.18R                  
LANGLEY AFB    CLOUDY    67  64  90 VRB5      30.18R                  
FORT EUSTIS    CLOUDY    67  63  85 NE5       30.17R                  
WILLIAMSBURG*  PTSUNNY   66  63  88 CALM      30.19S                  
HR EXEC AP*    MOSUNNY   57  55  94 CALM      30.20R                  
FRANKLIN*      MOSUNNY   63  61  94 CALM      30.18R                  
WAKEFIELD      CLOUDY    63  59  87 CALM      30.18R                  
$$

VAZ020-022-025-037-045-191300-
WEST CENTRAL AND SOUTHWEST VIRGINIA
  
CITY           SKY/WX    TMP DP  RH WIND       PRES   REMARKS
STAUNTON*      CLOUDY    60  50  69 CALM      30.24R                  
HOT SPRINGS VA CLOUDY    51  36  57 E6        30.27R                  
LYNCHBURG      CLOUDY    62  61  96 NE6       30.20R                  
DANVILLE       CLOUDY    65  61  87 NE6       30.17R                  
SOUTH BOSTON*  NOT AVBL                                               
MARTINSVILLE   HVY RAIN  64  64 100 CALM      30.20R VSB 1            
ROANOKE        CLOUDY    64  57  78 NE7       30.20R                  
BLACKSBURG     CLOUDY    63  63 100 E6        30.22R FOG              
DUBLIN*        CLOUDY    61  61 100 CALM      30.21R FOG              
MARION*        MOCLDY    59  56  91 CALM      30.22R                  
HILLSVILLE*    CLOUDY    58  58  99 CALM      30.21R FOG              
RICHLANDS*     SUNNY     62  58  88 SE3       30.17R                  
WISE*          CLEAR     59  57  94 CALM      30.17S                  
ABINGDON*      MOCLDY    59  58  94 E6        30.16R                  
$$

MDZ021>025-VAZ099-100-191300-
SOUTHERN MARYLAND AND THE DELMARVA PENINSULA
  
CITY           SKY/WX    TMP DP  RH WIND       PRES   REMARKS
PATUXENT RIVER MOSUNNY   63  58  83 NE10      30.21R                  
BAY BRIDGE APT   N/A     59  52  77 N3        30.24R                  
LEONARDTOWN    PTSUNNY   61  59  94 CALM      30.22R                  
DOVER          SUNNY     58  56  91 N10       30.21R                  
GEORGETOWN     SUNNY     60  56  86 VRB3      30.21R                  
EASTON         MOSUNNY   57  57 100 NE7       30.26R                  
CAMBRIDGE      SUNNY     59  54  82 CALM      30.21R                  
SALISBURY      SUNNY     62  57  83 CALM      30.20R HAZE             
OCEAN CITY     SUNNY     62  57  83 N3        30.19R                  
WALLOPS ISLAND SUNNY     64  58  80 N5        30.20R                  
ACCOMACK*      MOSUNNY   63  59  88 CALM      30.19R                  
$$

NCZ012>017-030>032-191300-
EASTERN NORTH CAROLINA
  
CITY           SKY/WX    TMP DP  RH WIND       PRES   REMARKS
ELIZABETH CITY SUNNY     65  62  90 NW3       30.17R                  
AHOSKIE*       MOSUNNY   59  57  93 CALM      30.17S                  
EDENTON*       MOSUNNY   63  60  93 NE5       30.16R                  
CURRITUCK*     SUNNY     63  60  89 CALM      30.18R                  
KILL DEVIL HLS SUNNY     72  57  59 E6        30.15R                  
MANTEO         SUNNY     71  57  60 E8        30.16R                  
CAPE HATTERAS  MOSUNNY   71  62  73 NE8       30.13R                  
TARBORO*       MOSUNNY   61  59  93 CALM      30.17R                  
GOLDSBORO      MOSUNNY   64  63  97 CALM      30.13R                  
WASHINGTON     MOSUNNY   63  58  86 NE5       30.15R                  
GREENVILLE     MOSUNNY   63  59  88 CALM      30.16R                  
NEW BERN       PTSUNNY   69  61  75 NE8       30.15R                  
WILMINGTON     PTSUNNY   67  62  84 NE9       30.10R                  
$$

VAZ048-191300-
ELSEWHERE
  
CITY           SKY/WX    TMP DP  RH WIND       PRES   REMARKS
HARRISBURG PA  SUNNY     55  47  74 CALM      30.27R                  
BALTIMORE      MOSUNNY   58  50  75 NE9       30.24R                  
ANNAPOLIS      PTSUNNY   62  53  72 NE8       30.23R                  
ANDREWS AFB    MOSUNNY   56  55  94 NE9       30.22R                  
WILMINGTON DE  SUNNY     58  50  75 NE12      30.25R                  
PHILADELPHIA   MOSUNNY   59  49  69 NE10      30.26R                  
WILDWOOD NJ*   SUNNY     57  52  82 NE8       30.22R                  
ATLANTIC CITY  SUNNY     56  53  90 N6        30.23R                  
HENDERSON NC   CLOUDY    61  59  92 N3        30.18R                  
GREENSBORO     CLOUDY    65  59  81 E3        30.15R                  
ROCKY MOUNT    CLOUDY    64  60  87 NE5       30.16R                  
FAYETTEVILLE   CLOUDY    65  62  90 N6        30.12R                  
CHARLOTTE      CLOUDY    67  64  90 NE6       30.13R                  
$$

VAZ100-191300-
MARINE
  
STATION/POSITION TIME  TEMP    WIND        PRES    WAVE   SWELL
                       AIR SEA DIR/SP/G            HT/PER HT/PER
                 (UTC) (F)     (DEG/KT/KT) (MB)    (FT/S) (FT/S)
44066 TX TWR #4  1200   66 72   40/ 21/ 27 1022.1R   4/ 5   2/11
CAPE MAY NJ      1200   59 75   50/  7/ 10 1022.2R
LEWES DE         1200   64 72   60/  9/ 11 1022.4R
15NM E FENWICK I 1200   69 72              1022.2R   2/11
OCEAN-CITY-INLET 1200   65 72  360/  6/  7 1021.9S
WACHAPREAGUE VA  1200   69 73   CALM  /  2 1022.2R
THOMAS POINT MD  1200   61 73   40/ 14/ 16 1024.5R
GOOSES REEF MD   1200   63      80/ 12/ 14 1023.6R
COVE POINT MD    1200   62     100/ 10/ 12 1022.9R
SOLOMONS ISLAND  1200      75                N/A
BISHOPS HEAD MD  1200   64 71   40/ 10/ 14 1022.2R
PINEY POINT MD   1200           60/  5/  6   N/A
POTOMAC MD       1200   69      50/ 12/ 14 1022.1R
CAMBRIDGE MD     1200   61 74   30/  3/  9 1023.0R
LEWISETTA VA     1200   69 73   30/  6/  9 1022.2R
RAPPAHANNOCK LGT 1200           50/  5/  6 1022.6R
STINGRAY PT      1200   71      10/  8/ 10   N/A
YORK RVR RNG VA  1200   70      20/  8/  9 1021.5R
YORKTOWN VA      1200   68 76  360/  7/  8 1021.7R
JAMESTOWN VA     1200   65      40/  6/  8   N/A
DOMINION TERM VA 1200   69      20/  5/  5 1021.8S
KIPTOPEKE VA     1200      78   40/  4/  5   N/A
CHES BAY BRIDGE  1200   72 75   60/  8/  9 1021.3R
CAPE HENRY VA    1200   72      70/  9/ 10 1020.5R
CHESAPEAKE LGHT  1100   71      60/ 10/ 12 1021.9R
WILLOUBY STN VA  1200   70     350/  5/  6 1020.5R
S CRANEY ISL VA  1200          330/  5/  5 1021.5R
CAPE HENRY BUOY  1200      75                N/A     3/11   2/11
1ST LANDING BUOY 1200   72      80/  8/ 10 1021.3R
CAPE CHARLES BUO 1200      74                N/A     3/12   3/12
OFFSHORE WE BUOY 1200      74                N/A     3/ 7   3/ 7
64NM E OF VA BCH 1200   73 76   50/ 14/ 17 1020.9R   4/10   3/10
DUCK PIER NC     1200   72 75   60/ 15/ 16 1020.6R
44100 DUCK FRF   1200      74                N/A     4/ 7   2/11
44056 DUCK FRF   1200                        N/A     3/11   2/11
OREGON INLET NC  1200   72 73   50/ 10/ 14 1020.8R
HATTERAS NC      1200   73 75   40/ 11/ 16 1020.5R
DIAMOND SHLS NC  1200   77      50/ 17/ 21 1019.2R   5/ 7
CAPE LOOKOUT NC  1100   74      40/ 18/ 20 1018.8R
$$

Return to Home page


Western Regional Climate Center, wrcc@dri.edu